Arden, NC

3:45 AM EST on January 22, 2017 (GMT -0500)
Asheville Regional

Weather History for KAVL - October, 2006

Change the Weather History Date:

Monday, October 2, 2006

  Actual Average Record
Temperature  
Mean Temperature 59 °F 61 °F  
Max Temperature 74 °F 72 °F 87 °F (1897)
Min Temperature 43 °F 50 °F 28 °F (1895)
Degree Days  
Heating Degree Days 6 5  
Month to date heating degree days 8 10  
Since 1 July heating degree days 76 67  
Cooling Degree Days 0 1  
Month to date cooling degree days 0 2  
Year to date cooling degree days 841 854  
Growing Degree Days 8 (Base 50)    
Moisture  
Dew Point 49 °F    
Average Humidity 73    
Maximum Humidity 100    
Minimum Humidity 46    
Precipitation  
Precipitation 0.00 in 0.10 in 1.87 in (2012)
Month to date precipitation 0.00 0.21  
Year to date precipitation 36.20 35.63  
Snow  
Snow 0.00 in 0.00 in 0.00 in ()
Month to date snowfall 0.0 0.0  
Since 1 July snowfall 0.0 0.0  
Since 1 September snowfall 0.0 0.0  
Snow Depth -    
Sea Level Pressure  
Sea Level Pressure 30.29 in    
Wind  
Wind Speed 2 mph (North)    
Max Wind Speed 9 mph    
Max Gust Speed 12 mph    
Visibility 5 miles    
Events Fog    
T = Trace of Precipitation, MM = Missing Value Source: NWS Daily Summary

Daily Weather History Graph

Daily Weather History Graph

Search for Another Location

Airport or City:

Trip Planner

Search our weather history database for the weather conditions in past years. The results will help you decide how hot, cold, wet, or windy it might be!

Date:

Astronomy

Oct. 02, 2006 Rise Set
Actual Time 7:25 AM EDT 7:12 PM EDT
Civil Twilight 7:00 AM EDT 7:38 PM EDT
Nautical Twilight 6:30 AM EDT 8:07 PM EDT
Astronomical Twilight 6:01 AM EDT 8:37 PM EDT
Moon 4:44 PM EDT (10/2) 1:50 AM EDT (10/2)
Length of Visible Light 12h 37m
Length of Day
11h 46m
Waxing Gibbous, 73% of the Moon is Illuminated
Oct 2
Waxing Gibbous
Oct 6
Full
Oct 13
Last Quarter
Oct 22
New
Oct 29
First Quarter

Hourly Weather History & Observations

Time (EDT) Temp. Windchill Dew Point Humidity Pressure Visibility Wind Dir Wind Speed Gust Speed Precip Events Conditions
12:54 AM 53.1 °F - 48.9 °F 86% 30.21 in 10.0 mi North 3.5 mph - N/A   Clear
1:54 AM 52.0 °F - 48.9 °F 89% 30.21 in 10.0 mi NW 3.5 mph - N/A   Clear
2:54 AM 48.9 °F - 46.9 °F 93% 30.22 in 6.0 mi Calm Calm - N/A   Clear
3:36 AM 48.2 °F - 46.4 °F 93% 30.27 in 2.5 mi Calm Calm - N/A   Clear
3:46 AM 48.2 °F - 46.4 °F 93% 30.27 in 3.0 mi Calm Calm - N/A   Clear
3:54 AM 48.9 °F - 46.9 °F 93% 30.22 in 4.0 mi Calm Calm - N/A   Clear
4:54 AM 46.0 °F - 44.1 °F 93% 30.24 in 3.0 mi Calm Calm - N/A   Clear
4:57 AM 46.4 °F - 44.6 °F 93% 30.28 in 2.0 mi Calm Calm - N/A   Partly Cloudy
5:00 AM 46.4 °F - 44.6 °F 93% 30.28 in 1.0 mi Calm Calm - N/A   Scattered Clouds
5:04 AM 46.4 °F - 44.6 °F 93% 30.28 in 0.5 mi Calm Calm - N/A Fog Fog
5:13 AM 46.4 °F - 44.6 °F 93% 30.29 in 1.2 mi Calm Calm - N/A   Scattered Clouds
5:15 AM 46.4 °F - 44.6 °F 93% 30.29 in 2.0 mi Calm Calm - N/A   Partly Cloudy
5:23 AM 46.4 °F 45.2 °F 44.6 °F 93% 30.28 in 5.0 mi NNW 3.5 mph - N/A   Partly Cloudy
5:54 AM 45.0 °F - 43.0 °F 93% 30.26 in 8.0 mi Calm Calm - N/A   Clear
6:10 AM 44.6 °F - 42.8 °F 93% 30.30 in 1.5 mi Calm Calm - N/A   Clear
6:12 AM 44.6 °F - 42.8 °F 93% 30.30 in 0.8 mi Calm Calm - N/A   Partly Cloudy
6:23 AM 44.6 °F - 42.8 °F 93% 30.30 in 2.0 mi Calm Calm - N/A   Scattered Clouds
6:54 AM 43.0 °F - 42.1 °F 97% 30.29 in 1.0 mi Calm Calm - N/A   Scattered Clouds
6:56 AM 42.8 °F - 42.8 °F 100% 30.32 in 0.5 mi Calm Calm - N/A Fog Fog
7:30 AM 46.4 °F - 44.6 °F 93% 30.32 in 4.0 mi Calm Calm - N/A   Partly Cloudy
7:54 AM 44.1 °F - 43.0 °F 96% 30.31 in 0.2 mi Calm Calm - N/A Fog Fog
8:07 AM 44.6 °F - 44.6 °F 100% 30.34 in 0.2 mi Calm Calm - N/A Fog Fog
8:41 AM 46.4 °F - 46.4 °F 100% 30.35 in 0.2 mi Calm Calm - N/A Fog Fog
8:44 AM 46.4 °F - 46.4 °F 100% 30.35 in 1.0 mi Calm Calm - N/A   Mostly Cloudy
8:46 AM 48.2 °F - 46.4 °F 93% 30.35 in 1.8 mi Calm Calm - N/A   Mostly Cloudy
8:54 AM 48.0 °F - 46.9 °F 96% 30.32 in 5.0 mi Calm Calm - N/A   Partly Cloudy
9:54 AM 54.0 °F - 48.9 °F 83% 30.33 in 9.0 mi Calm Calm - N/A   Clear
10:54 AM 60.1 °F - 51.1 °F 72% 30.32 in 10.0 mi Variable 4.6 mph - N/A   Clear
11:54 AM 66.0 °F - 52.0 °F 60% 30.31 in 10.0 mi Variable 4.6 mph - N/A   Clear
12:54 PM 69.1 °F - 51.1 °F 53% 30.29 in 10.0 mi South 9.2 mph - N/A   Clear
1:54 PM 72.0 °F - 52.0 °F 49% 30.27 in 10.0 mi Variable 3.5 mph - N/A   Clear
2:54 PM 73.0 °F - 51.1 °F 46% 30.26 in 10.0 mi Variable 3.5 mph - N/A   Clear
3:54 PM 73.0 °F - 52.0 °F 48% 30.25 in 10.0 mi Variable 5.8 mph - N/A   Clear
4:54 PM 73.0 °F - 53.1 °F 49% 30.25 in 10.0 mi South 8.1 mph - N/A   Clear
5:54 PM 72.0 °F - 53.1 °F 51% 30.25 in 10.0 mi SE 4.6 mph - N/A   Clear
6:54 PM 66.9 °F - 55.9 °F 68% 30.27 in 10.0 mi SSE 6.9 mph - N/A   Clear
7:54 PM 62.1 °F - 55.9 °F 80% 30.28 in 10.0 mi Calm Calm - N/A   Clear
8:54 PM 59.0 °F - 55.9 °F 90% 30.29 in 10.0 mi Calm Calm - N/A   Clear
9:54 PM 57.0 °F - 55.0 °F 93% 30.30 in 8.0 mi Variable 3.5 mph - N/A   Clear
10:54 PM 55.9 °F - 54.0 °F 93% 30.31 in 7.0 mi Calm Calm - N/A   Clear
11:14 PM 55.4 °F - 53.6 °F 94% 30.34 in 1.2 mi South 3.5 mph - N/A   Clear
11:19 PM 55.4 °F - 53.6 °F 94% 30.33 in 0.8 mi Calm Calm - N/A   Mist
11:31 PM 55.4 °F - 53.6 °F 94% 30.34 in 0.2 mi Calm Calm - N/A Fog Fog
11:42 PM 53.6 °F - 53.6 °F 100% 30.33 in 1.0 mi Calm Calm - N/A   Mist
11:44 PM 55.4 °F - 53.6 °F 94% 30.33 in 1.5 mi Calm Calm - N/A   Scattered Clouds
11:47 PM 55.4 °F - 53.6 °F 94% 30.33 in 2.5 mi Calm Calm - N/A   Mostly Cloudy
11:54 PM 55.0 °F - 53.1 °F 93% 30.29 in 2.5 mi Calm Calm - N/A   Mostly Cloudy